Regional Weather Roundup
Issued by NWS Wakefield, VA

Home | Current Version | Previous Version | Text Only | Print | Product List | Glossary Off
Versions: 1 2 3 4 5 6 7 8 9 10 11 12 13 14 15 16 17 18 19 20 21 22 23 24 25 26 27

000
ASUS41 KAKQ 230415
RWRAKQ

REGIONAL WEATHER ROUNDUP
NATIONAL WEATHER SERVICE WAKEFIELD VA
1100 PM EST THU FEB 22 2018

Note: "fair" indicates few or no clouds below 12,000 feet with no
significant weather and/or obstructions to visibility. * = Denotes
station may not report precipitation (e.g., rain,snow,etc.),
thunder or fog.

VAZ042-051-052>054-056-230500-
NORTHERN VIRGINIA

CITY           SKY/WX    TMP DP  RH WIND       PRES   REMARKS
WASH NATIONAL  CLOUDY    44  39  82 NE12      30.61R
DULLES         CLOUDY    42  40  92 E7        30.59S
FORT BELVOIR   CLOUDY    43  38  85 CALM      30.60R
QUANTICO       DRIZZLE   45  43  93 NE9       30.60S
FREDERICKSBRG* CLOUDY    45  45 100 NE8       30.58R
STAFFORD*      CLOUDY    45  45 100 NE6       30.63R
WARRENTON      CLOUDY    45  41  85 NE6       30.58R
CULPEPER*      CLOUDY    45  43  91 NE6       30.59R
MANASSAS*      CLOUDY    44  40  85 NE10      30.59S
LEESBURG*      CLOUDY    39  39 100 E6        30.61S
WINCHESTER     CLOUDY    37  37 100 E3        30.58F FOG
FRONT ROYAL*   CLOUDY    39  39 100 N3        30.56F
LURAY*         CLOUDY    41  41 100 N7        30.55F FOG
$$

VAZ048-049-060>072-079>083-230500-
CENTRAL AND SOUTH CENTRAL VIRGINIA

CITY           SKY/WX    TMP DP  RH WIND       PRES   REMARKS
RICHMOND       CLOUDY    47  45  93 NE7       30.55R
CHESTERFIELD*  CLOUDY    48  46  93 E7        30.54S
PETERSBURG*    CLOUDY    48  45  88 NE9       30.54S
HANOVER        CLOUDY    47  44  90 NE3       30.56R
TAPPAHANNOCK*  CLOUDY    46  44  93 NE10      30.57R
QUINTON*       CLOUDY    46  45  99 NE6       30.55R
CHARLOTTSVILLE CLOUDY    46  43  89 NE10      30.55R FOG
GORDONSVILLE*  CLOUDY    44  44 100 NE7       30.55R FOG
ORANGE*        CLOUDY    43  41  93 CALM      30.56S FOG
LOUISA*        CLOUDY    45  44  99 N6        30.60R FOG
BUMPASS*       CLOUDY    45  44  95 CALM      30.55S
FARMVILLE*     CLOUDY   N/A N/A N/A NE8       30.51F
CREWE*         CLOUDY    50  50 100 NE3       30.51S
FORT PICKETT*  CLOUDY    49  49 100 NE8       30.52R
CHASE CITY*    CLOUDY    53  53 100 NE7       30.48S
CLARKSVILLE*   CLOUDY    55  55 100 NE8       30.47S
SOUTH HILL*    CLOUDY    53  52  99 NE5       30.55S
LAWRENCEVILLE* CLOUDY    51  50  95 NE5       30.51R
EMPORIA*       CLOUDY    52  50  93 N8        30.53R
$$

VAZ088>098-230500-
SOUTHEAST VIRGINIA

CITY           SKY/WX    TMP DP  RH WIND       PRES   REMARKS
NORFOLK        CLOUDY    45  45 100 NE17      30.53S FOG
VIRGINIA BEACH FOG       44  42  93 NE12      30.52S VSB 1/2
NORFOLK NAVAL  NOT AVBL
WEST POINT*    CLOUDY    46  43  91 NE6       30.58R
SALUDA*        CLOUDY    43  43 100 NE8       30.55S
NEWPORT NEWS   CLOUDY    46  44  93 NE10      30.54R FOG
LANGLEY AFB    CLOUDY    46  46 100 NE16      30.54R FOG
FORT EUSTIS    CLOUDY    47  45  94 NE9       30.52R
WILLIAMSBURG*  CLOUDY    50  45  81 NE6       30.56R
HR EXEC AP*    CLOUDY    46  45  96 NE9       30.54R FOG
FRANKLIN*      CLOUDY    48  48  98 NE12      30.53R
US460-WAKEFLD  CLOUDY    49  47  93 E7        30.53R
$$

VAZ020-022-025-037-045-230500-
WEST CENTRAL AND SOUTHWEST VIRGINIA

CITY           SKY/WX    TMP DP  RH WIND       PRES   REMARKS
STAUNTON*      CLOUDY    42  40  93 N5        30.55S FOG
WAYNESBORO*    CLOUDY    42  42  99 N5        30.53S
HOT SPRINGS VA CLOUDY    53  53 100 S5        30.48S
LYNCHBURG      CLOUDY    48  44  86 NE16      30.49S
DANVILLE       MOCLDY    58  53  84 NE14      30.44R
SOUTH BOSTON*  CLOUDY    56  51  85 NE6       30.47F
MARTINSVILLE   MOCLDY    60  58  92 CALM      30.44R
ROANOKE        CLOUDY    57  51  80 S12       30.47S
BLACKSBURG     CLOUDY    62  57  83 SE8       30.46S
DUBLIN*        FAIR      62  57  82 CALM      30.44R
MARION*        FAIR      61  56  84 CALM      30.45S
HILLSVILLE*    MOCLDY    62  59  91 S6        30.44S
RICHLANDS*     FAIR      63  54  74 CALM      30.42S
WISE*          FAIR      59  54  82 S6        30.43R
ABINGDON*      FAIR      62  55  80 CALM      30.40R
$$

MDZ021>025-VAZ099-100-230500-
SOUTHERN MARYLAND AND THE DELMARVA PENINSULA

CITY           SKY/WX    TMP DP  RH WIND       PRES   REMARKS
PATUXENT RIVER DRIZZLE   42  41  96 E13       30.57S
BAY BRIDGE APT CLOUDY    41  37  87 NE5       30.62R
LEONARDTOWN    CLOUDY    41  39  93 NE3       30.60S
DOVER          CLOUDY    40  36  85 NE9       30.61R
GEORGETOWN     CLOUDY    41  37  86 NE10G20   30.59R
EASTON         CLOUDY    42  37  83 E8        30.64S
CAMBRIDGE      CLOUDY    41  39  93 NE10      30.60R
SALISBURY      CLOUDY    41  40  96 NE12G21   30.57R
OCEAN CITY     LGT RAIN  42  42 100 NE13      30.57R
WALLOPS ISLAND CLOUDY    45  43  93 NE20G25   30.55S
ACCOMACK*      CLOUDY    44  42  92 NE18      30.54S
$$

NCZ012>017-030>032-230500-
NORTH CENTRAL AND EASTERN NORTH CAROLINA

CITY           SKY/WX    TMP DP  RH WIND       PRES   REMARKS
ROANOKE RAPIDS CLOUDY    59  55  88 N9        30.48R
RALEIGH        FAIR      66  60  81 CALM      30.44R
ELIZABETH CITY CLOUDY    48  48 100 NE14      30.51R FOG
AHOSKIE*       CLOUDY    53  51  94 N9        30.50R
EDENTON*       NOT AVBL
CURRITUCK*     CLOUDY    45  44  97 N13G21    30.52S FOG
KILL DEVIL HLS FOG      N/A N/A N/A N6G16     30.49R VSB 3/4
MANTEO         CLOUDY    48  48  99 NE15G22   30.50R FOG
CAPE HATTERAS  FAIR      64  63  96 SW3       30.46F
TARBORO*       NOT AVBL
GOLDSBORO      FAIR      65  60  82 CALM      30.43R
WASHINGTON     CLOUDY    66  61  84 CALM      30.46S
GREENVILLE     FAIR      61  61 100 CALM      30.45S
NEW BERN       FAIR      61  59  93 CALM      30.47R
WILMINGTON     FAIR      63  61  93 S3        30.45S
$$

VAZ048-230500-
ELSEWHERE

CITY           SKY/WX    TMP DP  RH WIND       PRES   REMARKS
HARRISBURG PA  CLOUDY    39  36  89 E7        30.61F
BALTIMORE      CLOUDY    42  40  92 E7        30.62R
ANNAPOLIS      CLOUDY    44  40  85 NE6       30.62R
ANDREWS AFB    CLOUDY    41  38  88 NE12      30.59R
PHILADELPHIA   CLOUDY    39  37  92 NE10      30.65R
HENDERSON NC   CLOUDY    59  55  86 NE8       30.46R
GREENSBORO     FAIR      64  61  90 S8        30.40F
ROCKY MOUNT    CLOUDY    60  58  92 CALM      30.45S
$$

VAZ100-230500-
MARINE

STATION/POSITION TIME  TEMP    WIND        PRES    WAVE   SWELL
                       AIR SEA DIR/SP/G            HT/PER HT/PER
                 (UTC) (F)     (DEG/KT/KT) (MB)    (FT/S) (FT/S)
BRANDYWINE LGT   0342   41      70/ 20/ 22 1036.3R
CAPE MAY NJ      0348   41 44   70/  9/ 16 1035.6R
LEWES DE         0342   41 44   80/ 18/ 22 1035.7R
15NM E FENWICK I 0350   43 43   40/ 19/ 23 1034.6R   9/ 8   2/13
OCEAN-CITY-INLET 0342   42 41   60/  6/ 12 1035.6R
WACHAPREAGUE VA  0342   44 55   30/ 18/ 25 1034.0S
THOMAS POINT MD  0400   41 42   80/  6/  7   N/A
GOOSES REEF MD   0400   42 43   90/ 14/ 16 1031.3    2/ 2
COVE POINT MD    0342   41      80/ 12/ 14 1036.4R
SOLOMONS ISLAND  0342   42 45   60/ 12/ 15 1035.1F
BISHOPS HEAD MD  0342   42 49   30/ 13/ 16 1035.8R
PINEY POINT MD   0342           80/  9/ 12   N/A
POTOMAC MD       0400   42 42  220/ 12/ 14 1034.9    1/ 3
CAMBRIDGE MD     0342   41 48              1037.0R
LEWISETTA VA     0342   43 49   80/ 11/ 15 1035.4R
RAPPAHANNOCK LGT 0342           40/ 14/ 18 1034.8R
YORK RVR RNG VA  0342           70/ 13/ 15 1034.9R
YORKTOWN VA      0342      51   50/ 12/ 13 1034.0R
DOMINION TERM VA 0342   46      20/  3/  8 1034.4R
KIPTOPEKE VA     0342      45   60/ 16/ 22   N/A
CAPE HENRY VA    0342           30/ 19/ 22   N/A
WILLOUBY STN VA  0342           50/ 18/ 20 1034.2R
S CRANEY ISL VA  0342           60/ 16/ 19 1033.7R
CAPE HENRY BUOY  0400      44                N/A     5/ 6   2/14
CAPE CHARLES BUO 0351      44                N/A     5/ 6   2/14
64NM E OF VA BCH 0350   51 51   20/ 12/ 14 1032.3R   3/14   2/14
DUCK PIER NC     0342      46   20/ 14/ 16 1032.3R
44100 DUCK FRF   0345      49                N/A     4/14   2/14
44056 DUCK FRF   0400      46                N/A     4/15   2/15
OREGON INLET NC  0342   54 66  340/ 10/ 13 1032.0R
HATTERAS NC      0342   65 62  190/  2/  6 1031.5S
DIAMOND SHLS NC  0400   73     210/ 10/ 14 1031.7
CAPE LOOKOUT NC  0400          180/  5/  5 1031.8S
$$




USA.gov is the U.S. government's official web portal to all federal, state and local government web resources and services.